Belo Horizonte Pamppulha, Brazil

12:05 AM -03 on May 26, 2018 (GMT -0300)
Pampulha

Weather History for SBBH - February, 2013

Change the Weather History Date:

Monday, February 11, 2013

  Actual Average Record
Temperature  
Mean Temperature 74 °F -  
Max Temperature 87 °F 83 °F 93 °F (1999)
Min Temperature 60 °F 68 °F 60 °F (2013)
Cooling Degree Days 8    
Growing Degree Days 24 (Base 50)    
Moisture  
Dew Point 61 °F    
Average Humidity 62    
Maximum Humidity 78    
Minimum Humidity 40    
Precipitation  
Precipitation 0.00 in - - ()
Sea Level Pressure  
Sea Level Pressure 30.03 in    
Wind  
Wind Speed 6 mph ()    
Max Wind Speed 12 mph    
Max Gust Speed -    
Visibility 6.2 miles    
Events      
Averages and records for this station are not official NWS values.
T = Trace of Precipitation, MM = Missing Value Source: Averaged Metar Reports

Daily Weather History Graph

Daily Weather History Graph

Search for Another Location

Airport or City:

Astronomy

Feb. 11, 2013 Rise Set
Actual Time 6:45 AM -02 7:33 PM -02
Civil Twilight 6:22 AM -02 7:56 PM -02
Nautical Twilight 5:56 AM -02 8:23 PM -02
Astronomical Twilight 5:28 AM -02 8:50 PM -02
Moon 7:52 AM -02 (2/11) 8:24 PM -02 (2/11)
Length of Visible Light 13h 33m
Length of Day
12h 48m
New Moon, 2% of the Moon is Illuminated
Feb 11
New Moon
Feb 17
First Quarter
Feb 25
Full
Mar 4
Last Quarter
Mar 11
New

Hourly Weather History & Observations

Time (-02) Temp. Heat Index Dew Point Humidity Pressure Visibility Wind Dir Wind Speed Gust Speed Precip Events Conditions
12:00 AM 71.6 °F - 60.8 °F 69% 30.06 in - East 5.8 mph - N/A   Clear
1:00 AM 69.8 °F - 60.8 °F 73% 30.06 in - East 4.6 mph - N/A   Clear
2:00 AM 69.8 °F - 60.8 °F 73% 30.04 in - ENE 4.6 mph - N/A   Clear
3:00 AM 68.0 °F - 60.8 °F 78% 30.04 in - ENE 4.6 mph - N/A   Clear
4:00 AM 60.8 °F - 53.6 °F 77% 30.01 in - ENE 4.6 mph - N/A   Clear
5:00 AM 68.0 °F - 60.8 °F 78% 30.01 in - ENE 5.8 mph - N/A   Clear
6:00 AM 68.0 °F - 60.8 °F 78% 30.01 in - ENE 6.9 mph - N/A   Clear
7:00 AM 68.0 °F - 60.8 °F 78% 30.04 in - East 5.8 mph - N/A   Clear
8:00 AM 69.8 °F - 62.6 °F 78% 30.06 in - East 4.6 mph - N/A   Clear
9:00 AM 73.4 °F - 62.6 °F 69% 30.09 in - ESE 10.4 mph - N/A   Clear
10:00 AM 77.0 °F - 62.6 °F 61% 30.09 in 6.2 mi East 6.9 mph - N/A   Partly Cloudy
11:00 AM 80.6 °F 81.8 °F 62.6 °F 54% 30.09 in 6.2 mi ENE 9.2 mph - N/A   Partly Cloudy
12:00 PM 82.4 °F 83.4 °F 62.6 °F 51% 30.06 in 6.2 mi East 10.4 mph - N/A   Partly Cloudy
1:00 PM 84.2 °F 84.4 °F 60.8 °F 45% 30.06 in 6.2 mi NE 8.1 mph - N/A   Scattered Clouds
2:00 PM 84.2 °F 85.0 °F 62.6 °F 48% 30.04 in 6.2 mi ENE 6.9 mph - N/A   Scattered Clouds
3:00 PM 86.0 °F 86.1 °F 60.8 °F 43% 30.01 in 6.2 mi NE 6.9 mph - N/A   Scattered Clouds
4:00 PM 87.8 °F 87.6 °F 60.8 °F 40% 29.98 in 6.2 mi NE 8.1 mph - N/A   Scattered Clouds
5:00 PM 86.0 °F 86.1 °F 60.8 °F 43% 29.98 in 6.2 mi NNE 8.1 mph - N/A   Scattered Clouds
6:00 PM 84.2 °F 83.8 °F 59.0 °F 42% 29.95 in 6.2 mi ENE 9.2 mph - N/A   Partly Cloudy
7:00 PM 82.4 °F 82.9 °F 60.8 °F 48% 29.95 in - ENE 11.5 mph - N/A   Clear
9:00 PM 77.0 °F - 62.6 °F 61% 30.01 in 6.2 mi East 10.4 mph - N/A   Mostly Cloudy
10:00 PM 75.2 °F - 62.6 °F 65% 30.01 in - East 6.9 mph - N/A   Clear
11:00 PM 73.4 °F - 62.6 °F 69% 30.04 in - East 6.9 mph - N/A   Clear